THOR ABLESTAR DEB, 544

Orbit data source: Space-Track

THOR ABLESTAR DEB, 544 is space debris in LEO originally from a launch on Thu, 29 Jun 1961 UTC launched from the Air Force Eastern Test Range (AFETR). Debris objects in space refer to the collection of defunct objects orbiting the Earth. Examples of debris include non-operational satellites, rocket bodies, and fragments generated from explosions, collisions, or faulty payload assembly.

Loading next visibility...
Identifier
544, 1961-015GD
Orbit
LEO
Country
Flag of USUS
Related business
Manufacturer
Unknown
Mission
Spacecraft
Bus & Motor
Unknown
Mass
Unknown
Launch date (UTC)
1961-06-29 (65 years ago)
Launch vehicle
Unknown
Launch site
Air Force Eastern Test Range (AFETR)
Object type
Payload
Rocket body
Debris
Shape & HBR
Unknown shape, 0.1 m
Radar Cross Section
Small (<0.1 m²)

Expand to show TLE details & history
Last TLE update: 18 hours ago

TLE from 18 hours ago
0 THOR ABLESTAR DEB
1 00544U 61015GD  26070.43023443  .00000320  00000-0  49479-3 0  9995
2 00544  66.8721  84.4037 0190378 328.1936  93.5907 13.56160903188353
Epoch: 2026-03-11T10:19Z
TLE epoch observation values (Epoch: 2026-03-11T10:19:32.254Z)
Latitude
55.83155°
Longitude
159.17943°
Altitude
1,069.667 km
Speed
7.317 km/s
True Right ascension
08h 12m 38s
True Declination
55° 40' 42"
Sunlit
Object was in daylight at epoch
Visualization orbit readout
Latitude
Unknown
Longitude
Unknown
Altitude
Unknown
Speed
Unknown
Apparent Right ascension
Unknown
Apparent Declination
Unknown
Sunlit
N/A
Visualization observer readout
Local Sidereal Time
08:56:42
Azimuth
Unknown
Elevation
Unknown
Doppler factor
Unknown
Orbital elements
Apogee altitude
1,189.468 km
Perigee altitude
906.71 km
Semi-major axis
7,426.226 km
Eccentricity
0.01904
Inclination
66.8721°
RAAN
84.4037°
Arg. of periapsis
328.1936°
True anomaly
95.76423°
Mean anomaly
93.5907°
Eccentric anomaly
94.67785°
Mean motion
3.39149 °/min
Orbital period
106.15 mins
BSTAR
0.00049479
Loading maneuver chart data...
Computing Atmospheric mass density...
Loading historical data...
Loading historical data...
Loading historical data...
Loading historical data...
Loading historical data...
Loading historical data...
Loading historical data...

Documentation

Showing up to 5 results
|